Location: Balsareny
(41.8670°N, 1.8830°E)
Time: 23:31:27
(UTC+01:00)

ISS - Pass Details

Date: 02 December 2021
Orbit: 413 x 422 km, 51.6° (Epoch: 25 January)

Event Time Altitude Azimuth Distance (km) Brightness Sun altitude
Rises 17:44:57 0° 302° (WNW) 2,386 0.6 -4.6°
Reaches altitude 10° 17:47:40 10° 324° (NW) 1,518 -0.8 -5.1°
Maximum altitude 17:49:53 16° 5° (N) 1,194 -1.7 -5.4°
Drops below altitude 10° 17:52:07 10° 46° (NE) 1,512 -1.5 -5.8°
Enters shadow 17:52:51 - 55° (NE) 1,721 -1.3 -5.9°
